This is the latest recevied weather packets stored in our database for station/object K5MGY. If no packets are shown the sender has not sent any weather packets the latest 10 day(s).
| Time | Temp. | Humidity | Pressure | Rain* | Wind** | Luminosity | Snow |
|---|---|---|---|---|---|---|---|
| 1777683552 | 15.56° C | 68% | 1041.1 hPa | 0 mm | - | 4 W/m² | - |
| 1777683250 | 15.56° C | 67% | 1040.8 hPa | 0 mm | - | 5 W/m² | - |
| 1777682948 | 15.56° C | 67% | 1040.5 hPa | 0 mm | - | 8 W/m² | - |
| 1777682643 | 16.11° C | 67% | 1040.7 hPa | 0 mm | - | 8 W/m² | - |
| 1777682341 | 16.11° C | 66% | 1040.4 hPa | 0 mm | - | 9 W/m² | - |
| 1777682038 | 16.11° C | 66% | 1040.4 hPa | 0 mm | - | 10 W/m² | - |
| 1777681734 | 16.11° C | 66% | 1040.5 hPa | 0 mm | - | 11 W/m² | - |
| 1777681432 | 16.11° C | 65% | 1040.4 hPa | 0 mm | - | 12 W/m² | - |
| 1777681129 | 16.11° C | 64% | 1040.5 hPa | 0 mm | - | 13 W/m² | - |
| 1777680826 | 16.11° C | 64% | 1040.3 hPa | 0 mm | - | 18 W/m² | - |
| 1777680524 | 16.11° C | 65% | 1040.2 hPa | 0 mm | - | 25 W/m² | - |
| 1777680222 | 16.67° C | 63% | 1040 hPa | 0 mm | - | 21 W/m² | - |
| 1777679918 | 16.67° C | 63% | 1040.4 hPa | 0 mm | - | 20 W/m² | - |
| 1777679614 | 16.67° C | 63% | 1040.2 hPa | 0 mm | - | 26 W/m² | - |
| 1777679308 | 16.67° C | 62% | 1040.1 hPa | 0 mm | - | 26 W/m² | - |
| 1777679007 | 16.67° C | 63% | 1040.3 hPa | 0 mm | - | 30 W/m² | - |
| 1777678705 | 16.67° C | 63% | 1040.2 hPa | 0 mm | - | 31 W/m² | - |
| 1777678402 | 16.67° C | 63% | 1040.1 hPa | 0 mm | - | 31 W/m² | - |
| 1777678097 | 16.67° C | 62% | 1039.8 hPa | 0 mm | - | 47 W/m² | - |
| 1777677794 | 16.67° C | 63% | 1039.9 hPa | 0 mm | - | 50 W/m² | - |
| 1777677492 | 16.67° C | 62% | 1039.7 hPa | 0 mm | - | 58 W/m² | - |
| 1777677190 | 16.67° C | 62% | 1039.7 hPa | 0 mm | - | 56 W/m² | - |
| 1777676888 | 16.67° C | 63% | 1039.7 hPa | 0 mm | - | 52 W/m² | - |
| 1777676587 | 17.22° C | 62% | 1039.7 hPa | 0 mm | - | 51 W/m² | - |
| 1777676284 | 17.22° C | 62% | 1039.6 hPa | 0 mm | - | 51 W/m² | - |
* Rain latest hour (hover to see other rain measurements)
** Current wind speed in m/s (hover to see current wind gust speed)